{"data":{"norad_id":64337,"epoch":"2026-09-20T22:16:23.193408Z","epoch_age_seconds":97175,"freshness":"FRESH","line1":"1 64337U 25124W   26263.92804622  .00004119  00000+0  15913-3 0  9995","line2":"2 64337  43.0032  98.7560 0001584 265.7226  94.3444 15.27580160 71641","mean_motion":15.2758016,"eccentricity":0.0001584,"inclination_deg":43.0032,"raan_deg":98.756,"arg_perigee_deg":265.7226,"mean_anomaly_deg":94.3444,"bstar":0.00015913,"rev_number":7164,"period_min":94.266738840075,"perigee_km":481.96180514041,"apogee_km":484.13542874386,"semimajor_km":6861.1856169421,"source":"CELESTRAK","updated_at":"2026-09-21T09:00:35.314769Z"}}